[[{"header":{"parameterUnit":"m.s-1","parameterCategory":1,"la1":30.2991,"la2":30.254,"lo1":-89.0895,"lo2":-89.0444,"dy":0.0017,"dx":0.0017,"nx":28,"ny":28,"refTime":"2025-05-23T09:00:00:Z","depth":0,"parameterNumber":2,"parameterNumberName":"U-component_of_WINDS"},"data":[0,0,0,0,0,0,0,0,0,0,0,0,0,0,0,0,0,0,0,0,0,0,0,0,0,0,0,0,0,0,0,0,0,0,0,0,0,0,0,0,0,0,0,0,0,0,0,0,0,0,0,0,0,0,0,0,0,0,-0.1509,-0.1509,0,-0.1445,-0.1444,-0.1443,-0.1421,-0.1421,-0.1422,-0.1422,-0.1356,-0.1354,-0.1352,0,0,0,0,0,0,0,0,0,0,0,0,0,-0.1613,-0.1611,-0.1509,-0.1509,-0.1508,-0.1445,-0.1444,-0.1443,-0.1421,-0.1421,-0.1422,-0.1422,-0.1357,-0.1354,-0.1352,0,0,0,0,0,0,0,0,0,0,0,0,0,-0.156,-0.161,-0.151,-0.1489,-0.1487,-0.1445,-0.1444,-0.1443,-0.1421,-0.1421,-0.1422,-0.1422,-0.1357,-0.1355,-0.1352,-0.1326,0,0,-0.1343,-0.1341,0,0,0,0,0,0,0,0,-0.1563,-0.1556,-0.1493,-0.149,-0.1488,-0.1441,-0.1456,-0.1404,-0.1421,-0.1446,-0.1422,-0.1422,-0.1384,-0.1379,-0.1366,-0.1323,-0.132,-0.1342,-0.134,-0.1339,-0.1338,0,0,0,0,0,0,0,-0.1567,-0.1559,-0.1484,-0.1492,-0.1489,-0.1483,-0.1476,-0.1446,-0.1414,-0.1444,-0.1442,-0.1435,-0.1383,-0.1369,-0.1364,-0.1319,-0.1342,-0.134,-0.1338,-0.1337,-0.125,-0.125,0,0,0,0,0,0,-0.1574,-0.1562,-0.1486,-0.1482,-0.1527,-0.1481,-0.1473,-0.1456,-0.1414,-0.1408,-0.1434,-0.1434,-0.1374,-0.1368,-0.1362,-0.1328,-0.1339,-0.1336,-0.1335,-0.1251,-0.125,-0.1249,0,0,0,0,0,0,-0.1576,-0.1567,-0.1488,-0.1521,-0.1511,-0.1479,-0.146,-0.1454,-0.1441,-0.1407,-0.1401,-0.1426,-0.1374,-0.1366,-0.1335,-0.1326,-0.1335,-0.1332,-0.1251,-0.125,-0.125,-0.1261,0,0,0,0,0,0,-0.1579,-0.1568,-0.1558,-0.1521,-0.1509,-0.1463,-0.1459,-0.1453,-0.1436,-0.1434,-0.1398,-0.1392,-0.1374,-0.1339,-0.1332,-0.1322,-0.133,-0.1252,-0.1251,-0.125,-0.1262,-0.1261,-0.1261,0,0,0,0,0,-0.1583,-0.1564,-0.1558,-0.1549,-0.1496,-0.1462,-0.1455,-0.1434,-0.1435,-0.1424,-0.1403,-0.1393,-0.1328,-0.1336,-0.1328,-0.1317,-0.1252,-0.1251,-0.125,-0.1262,-0.1261,-0.1261,0,0,0,0,0,0,-0.1601,-0.1559,-0.1552,-0.1521,-0.1495,-0.1458,-0.1445,-0.1434,-0.1408,-0.1408,-0.1383,-0.1375,-0.1345,-0.1328,-0.1338,-0.1289,-0.129,-0.1287,-0.1302,-0.1301,-0.13,-0.1305,-0.1328,0,0,0,0,0,-0.1602,-0.1578,-0.1542,-0.1518,-0.1506,-0.1477,-0.1462,-0.1448,-0.142,-0.1409,-0.1385,-0.1359,-0.1332,-0.1316,-0.1289,-0.1259,-0.125,-0.1247,-0.1246,-0.1246,-0.1244,-0.1226,-0.1224,-0.1246,-0.1246,-0.1246,0,0,-0.1603,-0.1577,-0.1563,-0.1521,-0.15,-0.1475,-0.1469,-0.1443,-0.1424,-0.1406,-0.1374,-0.1356,-0.1325,-0.1293,-0.1278,-0.1278,-0.1236,-0.1245,-0.1245,-0.1243,-0.1224,-0.1222,-0.122,-0.1245,-0.1245,-0.1245,0,0,-0.1591,-0.1569,-0.1547,-0.1525,-0.1492,-0.1474,-0.1468,-0.1433,-0.1419,-0.1388,-0.1373,-0.135,-0.1305,-0.1283,-0.1266,-0.1245,-0.1236,-0.1238,-0.1235,-0.1217,-0.1216,-0.1214,-0.1206,-0.1204,-0.1235,-0.1235,-0.1235,0,-0.1596,-0.1559,-0.1536,-0.1511,-0.1493,-0.1474,-0.1451,-0.1431,-0.1392,-0.1379,-0.1379,-0.1322,-0.13,-0.1262,-0.1257,-0.1244,-0.1237,-0.1242,-0.1218,-0.1216,-0.1214,-0.1206,-0.1203,-0.1236,-0.1236,-0.1236,-0.1236,0,-0.1566,-0.154,-0.1526,-0.1487,-0.1468,-0.1444,-0.1417,-0.14,-0.1387,-0.1368,-0.1335,-0.1308,-0.1275,-0.1266,-0.1253,-0.1226,-0.1227,-0.1223,-0.1223,-0.1213,-0.1205,-0.1202,-0.1236,-0.1236,-0.1236,-0.1236,0,0,-0.1565,-0.1514,-0.151,-0.1492,-0.1454,-0.1433,-0.1408,-0.1376,-0.1361,-0.1334,-0.1312,-0.1274,-0.1269,-0.125,-0.1235,-0.1219,-0.1204,-0.1216,-0.1215,-0.1215,-0.1172,-0.1175,-0.1172,-0.1197,-0.1196,-0.1196,-0.1174,0,-0.1549,-0.1503,-0.1481,-0.1445,-0.142,-0.1401,-0.1379,-0.1353,-0.1335,-0.1311,-0.129,-0.1263,-0.1259,-0.1247,-0.1231,-0.1209,-0.1195,-0.121,-0.1176,-0.1175,-0.1184,-0.1168,-0.1172,-0.1153,-0.1171,-0.117,-0.117,0,-0.1524,-0.1496,-0.1457,-0.1421,-0.141,-0.139,-0.1359,-0.1336,-0.1306,-0.1294,-0.1272,-0.1257,-0.1229,-0.1231,-0.1192,-0.1203,-0.1187,-0.1174,-0.1173,-0.1169,-0.1172,-0.1163,-0.1146,-0.1143,-0.1165,-0.1165,-0.1166,0,-0.1526,-0.148,-0.145,-0.1435,-0.1393,-0.1379,-0.1361,-0.1332,-0.1313,-0.1285,-0.1273,-0.1243,-0.1226,-0.1203,-0.118,-0.1183,-0.1143,-0.1143,-0.1131,-0.1132,-0.1124,-0.1124,-0.1104,-0.1114,-0.1114,-0.1114,-0.1114,0,-0.151,-0.1487,-0.145,-0.1432,-0.1405,-0.138,-0.1354,-0.1335,-0.1308,-0.1285,-0.1268,-0.1247,-0.1218,-0.1193,-0.1175,-0.1145,-0.1138,-0.1127,-0.1122,-0.1128,-0.113,-0.1118,-0.1118,-0.1113,-0.1113,-0.1114,-0.1114,0,-0.1509,-0.1484,-0.145,-0.1412,-0.1402,-0.1384,-0.1351,-0.1333,-0.1313,-0.1284,-0.1276,-0.1245,-0.1215,-0.1189,-0.115,-0.1138,-0.1106,-0.1101,-0.1117,-0.1114,-0.1104,-0.1105,-0.1074,-0.1069,-0.1083,-0.1083,-0.1083,0,-0.15,-0.1481,-0.1442,-0.1425,-0.1407,-0.138,-0.1361,-0.1336,-0.1317,-0.1281,-0.1266,-0.1235,-0.1208,-0.1161,-0.1134,-0.1104,-0.1098,-0.1089,-0.1093,-0.1099,-0.1097,-0.1098,-0.1096,-0.1089,-0.1089,-0.1089,-0.1089,0,-0.1487,-0.1475,-0.1449,-0.1417,-0.1395,-0.1369,-0.1343,-0.133,-0.13,-0.1279,-0.1248,-0.1227,-0.1187,-0.1155,-0.1122,-0.1103,-0.109,-0.1088,-0.1083,-0.1089,-0.1099,-0.1093,-0.1115,-0.1089,-0.1089,-0.1089,-0.1089,-0.1089,-0.1481,-0.1464,-0.1433,-0.1403,-0.1381,-0.1356,-0.1336,-0.1314,-0.1287,-0.1252,-0.1238,-0.1206,-0.1176,-0.1129,-0.111,-0.1084,-0.1083,-0.1077,-0.1075,-0.1074,-0.1074,-0.1103,-0.1078,-0.1078,-0.1078,-0.1078,-0.1078,0,-0.1467,-0.1446,-0.1419,-0.1383,-0.1359,-0.1349,-0.132,-0.1301,-0.1273,-0.1245,-0.1219,-0.1183,-0.1152,-0.1123,-0.1091,-0.1076,-0.1069,-0.1068,-0.1069,-0.1064,-0.1078,-0.1085,-0.1074,-0.1074,-0.1074,-0.1074,-0.1074,-0.1074,-0.1457,-0.1426,-0.1411,-0.1368,-0.1347,-0.1315,-0.1299,-0.1276,-0.1254,-0.1214,-0.1188,-0.1169,-0.1141,-0.1106,-0.1078,-0.107,-0.1059,-0.1059,-0.105,-0.1063,-0.1064,-0.1064,-0.1071,-0.1057,-0.1057,-0.1038,-0.1038,-0.1038]},{"header":{"parameterUnit":"m.s-1","parameterCategory":1,"la1":30.2991,"la2":30.254,"lo1":-89.0895,"lo2":-89.0444,"dy":0.0017,"dx":0.0017,"nx":28,"ny":28,"refTime":"2025-05-23T09:00:00:Z","depth":0,"parameterNumber":3,"parameterNumberName":"V-component_of_WINDS"},"data":[0,0,0,0,0,0,0,0,0,0,0,0,0,0,0,0,0,0,0,0,0,0,0,0,0,0,0,0,0,0,0,0,0,0,0,0,0,0,0,0,0,0,0,0,0,0,0,0,0,0,0,0,0,0,0,0,0,0,0.1312,0.1312,0,0.1385,0.1386,0.1387,0.1364,0.1362,0.1361,0.1359,0.1434,0.1438,0.1441,0,0,0,0,0,0,0,0,0,0,0,0,0,0.115,0.1153,0.1311,0.1312,0.1313,0.1385,0.1386,0.1387,0.1364,0.1362,0.1361,0.1359,0.1433,0.1437,0.1441,0,0,0,0,0,0,0,0,0,0,0,0,0,0.1222,0.1154,0.1311,0.1311,0.1311,0.1385,0.1386,0.1387,0.1365,0.1362,0.136,0.1358,0.1432,0.1437,0.1442,0.1521,0,0,0.1458,0.146,0,0,0,0,0,0,0,0,0.1218,0.1228,0.131,0.1311,0.1312,0.1363,0.1357,0.1432,0.1365,0.1344,0.1359,0.1357,0.1413,0.1419,0.1438,0.1524,0.1527,0.1458,0.1461,0.1464,0.1465,0,0,0,0,0,0,0,0.1213,0.1224,0.1341,0.1311,0.1312,0.1306,0.1314,0.1371,0.1391,0.1346,0.1345,0.1354,0.1413,0.1433,0.144,0.1528,0.1458,0.1463,0.1466,0.1468,0.1684,0.1686,0,0,0,0,0,0,0.1207,0.122,0.1338,0.1343,0.1258,0.1311,0.132,0.1349,0.139,0.1394,0.1356,0.1352,0.1425,0.1434,0.1442,0.1538,0.1464,0.1468,0.1471,0.1681,0.1684,0.1687,0,0,0,0,0,0,0.1204,0.1218,0.1335,0.1281,0.1296,0.1316,0.1349,0.1352,0.1372,0.1397,0.14,0.1373,0.1424,0.1435,0.1502,0.154,0.1471,0.1475,0.1678,0.1682,0.1686,0.173,0,0,0,0,0,0,0.1199,0.1217,0.1247,0.1282,0.1299,0.1394,0.1352,0.1355,0.1381,0.1378,0.1414,0.1418,0.1423,0.1494,0.1507,0.1546,0.1479,0.1675,0.168,0.1684,0.1725,0.1735,0.1743,0,0,0,0,0,0.1194,0.1256,0.1249,0.1263,0.1337,0.1396,0.1406,0.141,0.1384,0.1415,0.1431,0.1417,0.1534,0.1501,0.1515,0.1557,0.1672,0.1678,0.1684,0.1721,0.1733,0.1743,0,0,0,0,0,0,0.1225,0.1261,0.1253,0.1329,0.136,0.1392,0.1431,0.1422,0.1461,0.1456,0.1459,0.1467,0.1536,0.1553,0.1516,0.1635,0.1599,0.1608,0.1622,0.1634,0.1643,0.1638,0.1484,0,0,0,0,0,0.1241,0.1286,0.1315,0.1379,0.1395,0.141,0.1436,0.1437,0.1469,0.1482,0.1502,0.1534,0.1577,0.1606,0.1648,0.1727,0.1735,0.1762,0.1771,0.1778,0.1787,0.1831,0.1844,0.1706,0.1706,0.1706,0,0,0.1274,0.1299,0.1328,0.1386,0.141,0.1457,0.1421,0.1472,0.1507,0.1489,0.1554,0.157,0.1605,0.1679,0.1712,0.1695,0.1826,0.1786,0.1792,0.1796,0.1838,0.1851,0.1863,0.171,0.171,0.1709,0,0,0.1359,0.1382,0.1439,0.1463,0.15,0.151,0.1523,0.1557,0.1568,0.1633,0.1621,0.1661,0.1736,0.1763,0.1785,0.188,0.1869,0.1893,0.1941,0.1984,0.1995,0.2004,0.2039,0.2052,0.1901,0.1901,0.1901,0,0.1396,0.1466,0.1469,0.1521,0.1547,0.1533,0.1591,0.1614,0.1663,0.1681,0.1661,0.1755,0.1778,0.1858,0.1881,0.1899,0.1915,0.189,0.1993,0.2003,0.2012,0.2045,0.2058,0.1904,0.1904,0.1903,0.1903,0,0.151,0.1559,0.16,0.1648,0.1678,0.1733,0.1744,0.1775,0.1772,0.1784,0.1851,0.1877,0.1924,0.1943,0.1941,0.2023,0.2011,0.1992,0.1956,0.2028,0.2059,0.2072,0.1908,0.1907,0.1906,0.1905,0,0,0.1618,0.1666,0.1681,0.1703,0.1743,0.1781,0.1834,0.1881,0.1908,0.1941,0.1987,0.205,0.2033,0.2059,0.206,0.2097,0.2172,0.2073,0.2074,0.2092,0.2265,0.2281,0.2295,0.2164,0.2166,0.2168,0.2263,0,0.1707,0.1802,0.1806,0.1893,0.1939,0.1926,0.1973,0.2002,0.2015,0.2055,0.2068,0.2114,0.2087,0.2103,0.2139,0.2155,0.2207,0.2148,0.2207,0.2209,0.2201,0.2312,0.2328,0.2416,0.2275,0.2277,0.2278,0,0.1824,0.1862,0.1954,0.1988,0.2007,0.2049,0.2092,0.2131,0.2164,0.217,0.2199,0.2195,0.225,0.2211,0.2287,0.2247,0.2271,0.2283,0.2286,0.2293,0.225,0.2323,0.2444,0.2458,0.2297,0.2296,0.2295,0,0.1896,0.1969,0.2034,0.2053,0.2093,0.2124,0.2142,0.2172,0.22,0.2237,0.2256,0.2298,0.2323,0.2356,0.2363,0.2333,0.244,0.2401,0.2447,0.2447,0.2472,0.2471,0.26,0.2485,0.2484,0.2484,0.2484,0,0.1996,0.2053,0.2067,0.2107,0.2171,0.2174,0.2237,0.2253,0.228,0.2323,0.2313,0.2354,0.236,0.2402,0.2407,0.247,0.2481,0.2488,0.2489,0.249,0.2489,0.2507,0.2502,0.2488,0.2487,0.2486,0.2486,0,0.2087,0.2099,0.2169,0.2201,0.2211,0.2256,0.2284,0.2322,0.2333,0.2388,0.2401,0.2418,0.2467,0.2477,0.2534,0.2538,0.2614,0.2608,0.2603,0.2603,0.2649,0.2646,0.2796,0.2816,0.2686,0.2688,0.2689,0,0.2152,0.2195,0.2233,0.2261,0.2281,0.2326,0.2355,0.2359,0.2389,0.243,0.2464,0.2512,0.255,0.2629,0.2647,0.269,0.2687,0.2736,0.2693,0.2693,0.2689,0.2687,0.2692,0.2745,0.2746,0.2748,0.2749,0,0.2265,0.2268,0.231,0.2354,0.2389,0.2423,0.2456,0.248,0.2489,0.2523,0.2573,0.2603,0.2662,0.271,0.2754,0.2772,0.2763,0.2762,0.2775,0.2777,0.2773,0.2778,0.2627,0.2759,0.2758,0.2757,0.2756,0.2756,0.2346,0.2384,0.2417,0.2464,0.2489,0.252,0.2558,0.2574,0.2616,0.2665,0.2665,0.272,0.2751,0.2809,0.2831,0.2874,0.2858,0.2877,0.2882,0.2887,0.2892,0.2765,0.2881,0.2881,0.2881,0.288,0.288,0,0.246,0.248,0.2523,0.257,0.2607,0.2594,0.263,0.2662,0.271,0.2741,0.2779,0.2837,0.2883,0.2904,0.295,0.298,0.2977,0.2992,0.2991,0.2996,0.2903,0.2887,0.2994,0.2994,0.2994,0.2994,0.2994,0.2994,0.2524,0.2589,0.2596,0.2674,0.2694,0.2748,0.277,0.2798,0.2823,0.2888,0.2926,0.294,0.2967,0.3014,0.3056,0.3061,0.3079,0.3097,0.31,0.3013,0.3002,0.2991,0.2977,0.31,0.3101,0.319,0.319,0.3191]}]]